Weather History for McGregor, MN

Change the Weather History Date:

Monday, January 21, 2013

  Actual Average (KAIT) Record (KAIT)
Temperature  
Mean Temperature -10 °F -  
Max Temperature -5 °F 21 °F 45 °F (1968)
Min Temperature -16 °F 2 °F -32 °F (2011)
Degree Days  
Heating Degree Days 76    
Moisture  
Dew Point -19 °F    
Average Humidity 66    
Maximum Humidity 77    
Minimum Humidity 55    
Precipitation  
Precipitation 0.00 in - - ()
Sea Level Pressure  
Sea Level Pressure 30.19 in    
Wind  
Wind Speed 7 mph (WNW)    
Max Wind Speed 13 mph    
Max Gust Speed 17 mph    
Visibility 9 miles    
Events      
Averages and records for this station are not official NWS values.
T = Trace of Precipitation, MM = Missing Value Source: NWS Daily Summary

Daily Weather History Graph

Daily Weather History Graph

Search for Another Location

Airport:

Trip Planner

Search our weather history database for the weather conditions in past years. The results will help you decide how hot, cold, wet, or windy it might be!

Date:

Astronomy

Jan. 21, 2013 Rise Set
Actual Time 7:48 AM CST 5:01 PM CST
Civil Twilight 7:15 AM CST 5:34 PM CST
Nautical Twilight 6:38 AM CST 6:11 PM CST
Astronomical Twilight 6:02 AM CST 6:47 PM CST
Moon 12:40 PM CST (1/21) 3:18 AM CST (1/21)
Length of Visible Light 10h 19m
Length of Day
9h 12m
Waxing Gibbous, 75% of the Moon is Illuminated
Jan 21
Waxing Gibbous
Jan 26
Full
Feb 3
Last Quarter
Feb 10
New
Feb 17
First Quarter

Hourly Weather History & Observations

Time (CST) Temp. Windchill Dew Point Humidity Pressure Visibility Wind Dir Wind Speed Gust Speed Precip Events Conditions
12:12 AM -9.4 °F -24.3 °F -16.6 °F 71% 30.18 in 10.0 mi NW 6.9 mph - N/A   Clear
12:32 AM -9.4 °F -25.6 °F -14.8 °F 77% 30.19 in 7.0 mi NW 8.1 mph - N/A   Scattered Clouds
12:49 AM -9.4 °F -24.3 °F -16.6 °F 71% 30.18 in 5.0 mi NW 6.9 mph - N/A   Mostly Cloudy
1:12 AM -9.4 °F -22.7 °F -16.6 °F 71% 30.19 in 10.0 mi WNW 5.8 mph - N/A   Scattered Clouds
1:31 AM -9.4 °F -25.6 °F -16.6 °F 71% 30.19 in 2.5 mi NW 8.1 mph - N/A   Mostly Cloudy
1:52 AM -9.4 °F -25.6 °F -16.6 °F 71% 30.19 in 2.0 mi WNW 8.1 mph - N/A   Overcast
2:11 AM -11.2 °F -26.4 °F -18.4 °F 70% 30.20 in 10.0 mi WNW 6.9 mph - N/A   Scattered Clouds
2:31 AM -11.2 °F -29.0 °F -18.4 °F 70% 30.20 in 10.0 mi WNW 9.2 mph 16.1 mph N/A   Scattered Clouds
2:50 AM -13.0 °F -32.4 °F -20.2 °F 70% 30.21 in 10.0 mi West 10.4 mph 16.1 mph N/A   Clear
3:12 AM -13.0 °F -30.0 °F -22.0 °F 64% 30.20 in 10.0 mi WNW 8.1 mph - N/A   Clear
3:32 AM -13.0 °F -31.3 °F -22.0 °F 64% 30.20 in 10.0 mi WNW 9.2 mph 17.3 mph N/A   Clear
3:53 AM -13.0 °F -27.0 °F -22.0 °F 64% 30.20 in 10.0 mi West 5.8 mph - N/A   Clear
4:12 AM -14.8 °F -30.8 °F -22.0 °F 70% 30.20 in 10.0 mi WNW 6.9 mph - N/A   Clear
4:32 AM -14.8 °F -33.5 °F -22.0 °F 70% 30.20 in 10.0 mi West 9.2 mph - N/A   Clear
4:50 AM -14.8 °F -32.2 °F -22.0 °F 70% 30.19 in 10.0 mi WNW 8.1 mph - N/A   Clear
5:12 AM -14.8 °F -32.2 °F -22.0 °F 70% 30.19 in 10.0 mi WNW 8.1 mph - N/A   Clear
5:32 AM -14.8 °F -33.5 °F -23.8 °F 64% 30.19 in 10.0 mi WNW 9.2 mph - N/A   Clear
5:52 AM -14.8 °F -32.2 °F -22.0 °F 70% 30.19 in 10.0 mi West 8.1 mph - N/A   Clear
6:12 AM -14.8 °F -30.8 °F -22.0 °F 70% 30.20 in 10.0 mi West 6.9 mph - N/A   Clear
6:32 AM -14.8 °F -30.8 °F -22.0 °F 70% 30.20 in 10.0 mi WNW 6.9 mph - N/A   Clear
6:48 AM -14.8 °F -32.2 °F -22.0 °F 70% 30.20 in 7.0 mi West 8.1 mph - N/A   Clear
7:12 AM -16.6 °F -31.3 °F -22.0 °F 76% 30.20 in 7.0 mi West 5.8 mph - N/A   Clear
7:32 AM -16.6 °F -31.3 °F -22.0 °F 76% 30.20 in 7.0 mi West 5.8 mph - N/A   Clear
7:50 AM -16.6 °F -32.9 °F -22.0 °F 76% 30.21 in 5.0 mi West 6.9 mph - N/A   Clear
8:13 AM -16.6 °F -32.9 °F -22.0 °F 76% 30.21 in 7.0 mi West 6.9 mph - N/A   Clear
8:33 AM -16.6 °F -32.9 °F -22.0 °F 76% 30.21 in 7.0 mi West 6.9 mph - N/A   Clear
8:52 AM -14.8 °F -32.2 °F -22.0 °F 70% 30.22 in 10.0 mi West 8.1 mph - N/A   Clear
9:12 AM -14.8 °F -30.8 °F -22.0 °F 70% 30.22 in 10.0 mi West 6.9 mph - N/A   Clear
9:33 AM -14.8 °F -30.8 °F -22.0 °F 70% 30.22 in 10.0 mi West 6.9 mph - N/A   Clear
9:52 AM -13.0 °F -28.6 °F -22.0 °F 64% 30.23 in 10.0 mi WNW 6.9 mph - N/A   Clear
10:13 AM -13.0 °F -34.3 °F -22.0 °F 64% 30.23 in 10.0 mi WNW 12.7 mph 17.3 mph N/A   Clear
10:32 AM -13.0 °F -33.4 °F -22.0 °F 64% 30.23 in 10.0 mi WNW 11.5 mph - N/A   Clear
10:50 AM -11.2 °F -31.1 °F -22.0 °F 59% 30.23 in 7.0 mi WNW 11.5 mph 16.1 mph N/A   Scattered Clouds
11:12 AM -11.2 °F -30.1 °F -20.2 °F 64% 30.22 in 7.0 mi WNW 10.4 mph 17.3 mph N/A   Mostly Cloudy
11:32 AM -9.4 °F -27.9 °F -20.2 °F 59% 30.22 in 5.0 mi WNW 10.4 mph 17.3 mph N/A   Overcast
11:50 AM -9.4 °F -29.8 °F -20.2 °F 59% 30.21 in 5.0 mi West 12.7 mph 17.3 mph N/A   Overcast
12:12 PM -9.4 °F -26.8 °F -20.2 °F 59% 30.20 in 10.0 mi WNW 9.2 mph - N/A   Overcast
12:32 PM -9.4 °F -26.8 °F -20.2 °F 59% 30.19 in 7.0 mi WNW 9.2 mph 17.3 mph N/A   Overcast
12:50 PM -7.6 °F -26.6 °F -18.4 °F 59% 30.19 in 5.0 mi West 11.5 mph - N/A   Overcast
1:12 PM -7.6 °F -25.7 °F -18.4 °F 59% 30.18 in 10.0 mi West 10.4 mph - N/A   Overcast
1:32 PM -7.6 °F -22.1 °F -18.4 °F 59% 30.17 in 7.0 mi West 6.9 mph 16.1 mph N/A   Overcast
1:52 PM -7.6 °F -24.6 °F -18.4 °F 59% 30.16 in 4.0 mi WNW 9.2 mph - N/A   Mostly Cloudy
2:12 PM -5.8 °F -24.4 °F -18.4 °F 55% 30.16 in 10.0 mi NW 11.5 mph - N/A   Mostly Cloudy
2:32 PM -5.8 °F -23.4 °F -18.4 °F 55% 30.16 in 10.0 mi WNW 10.4 mph 17.3 mph N/A   Scattered Clouds
2:52 PM -5.8 °F -21.2 °F -18.4 °F 55% 30.16 in 10.0 mi West 8.1 mph 17.3 mph N/A   Scattered Clouds
3:12 PM -5.8 °F -23.4 °F -16.6 °F 60% 30.17 in 7.0 mi WNW 10.4 mph 16.1 mph N/A   Overcast
3:33 PM -5.8 °F -19.9 °F -18.4 °F 55% 30.16 in 10.0 mi West 6.9 mph - N/A   Mostly Cloudy
3:51 PM -5.8 °F -21.2 °F -18.4 °F 55% 30.16 in 10.0 mi WNW 8.1 mph - N/A   Scattered Clouds
4:12 PM -5.8 °F -18.4 °F -16.6 °F 60% 30.16 in 10.0 mi West 5.8 mph - N/A   Scattered Clouds
4:32 PM -5.8 °F -18.4 °F -16.6 °F 60% 30.17 in 10.0 mi West 5.8 mph - N/A   Scattered Clouds
4:52 PM -7.6 °F -24.6 °F -16.6 °F 65% 30.17 in 10.0 mi West 9.2 mph - N/A   Scattered Clouds
5:12 PM -7.6 °F -20.6 °F -16.6 °F 65% 30.17 in 10.0 mi West 5.8 mph - N/A   Clear
5:32 PM -7.6 °F -18.8 °F -16.6 °F 65% 30.17 in 10.0 mi WSW 4.6 mph - N/A   Clear
5:51 PM -7.6 °F -18.8 °F -18.4 °F 59% 30.17 in 10.0 mi WSW 4.6 mph - N/A   Clear
6:13 PM -7.6 °F -16.5 °F -18.4 °F 59% 30.17 in 10.0 mi West 3.5 mph - N/A   Clear
6:32 PM -9.4 °F -18.6 °F -18.4 °F 65% 30.17 in 10.0 mi West 3.5 mph - N/A   Clear
6:53 PM -9.4 °F -18.6 °F -18.4 °F 65% 30.17 in 10.0 mi West 3.5 mph - N/A   Clear
7:10 PM -9.4 °F -18.6 °F -18.4 °F 65% 30.18 in 10.0 mi West 3.5 mph - N/A   Clear
7:32 PM -9.4 °F -18.6 °F -16.6 °F 71% 30.18 in 10.0 mi West 3.5 mph - N/A   Clear
7:52 PM -9.4 °F -20.9 °F -18.4 °F 65% 30.18 in 10.0 mi West 4.6 mph - N/A   Clear
8:13 PM -9.4 °F -22.7 °F -18.4 °F 65% 30.18 in 10.0 mi West 5.8 mph - N/A   Clear
8:33 PM -9.4 °F -20.9 °F -18.4 °F 65% 30.19 in 10.0 mi West 4.6 mph - N/A   Clear
8:52 PM -9.4 °F -22.7 °F -18.4 °F 65% 30.19 in 10.0 mi WNW 5.8 mph - N/A   Scattered Clouds
9:10 PM -9.4 °F -20.9 °F -18.4 °F 65% 30.19 in 10.0 mi WNW 4.6 mph - N/A   Scattered Clouds
9:32 PM -11.2 °F -23.0 °F -18.4 °F 70% 30.20 in 10.0 mi WNW 4.6 mph - N/A   Clear
9:52 PM -11.2 °F -20.6 °F -18.4 °F 70% 30.20 in 10.0 mi WNW 3.5 mph - N/A   Clear
10:10 PM -11.2 °F -20.6 °F -18.4 °F 70% 30.20 in 10.0 mi West 3.5 mph - N/A   Clear
10:32 PM -13.0 °F -25.1 °F -18.4 °F 77% 30.20 in 10.0 mi WNW 4.6 mph - N/A   Clear
10:52 PM -13.0 °F -25.1 °F -18.4 °F 77% 30.21 in 10.0 mi WNW 4.6 mph - N/A   Clear
11:12 PM -13.0 °F -25.1 °F -18.4 °F 77% 30.21 in 10.0 mi WNW 4.6 mph - N/A   Clear
11:32 PM -13.0 °F -27.0 °F -18.4 °F 77% 30.21 in 10.0 mi NW 5.8 mph - N/A   Clear
11:52 PM -13.0 °F -27.0 °F -20.2 °F 70% 30.21 in 10.0 mi NW 5.8 mph - N/A   Clear